Regional Weather Roundup
Issued by NWS Cleveland, OH

Home | Current Version | Previous Version | Graphics & Text | Print | Product List | Glossary On
Versions: 1 2 3 4 5 6 7 8 9 10 11 12 13 14 15 16 17 18 19 20 21 22 23 24 25 26 27 28 29 30 31 32 33 34 35 36 37 38 39 40 41 42 43 44 45 46 47 48 49 50
000
ASUS41 KCLE 291000
RWRCLE
OHIO REGIONAL WEATHER ROUNDUP
NATIONAL WEATHER SERVICE WILMINGTON, OH
600 AM EDT SAT AUG 29 2015

NOTE: "FAIR" INDICATES FEW OR NO CLOUDS BELOW 12,000 FEET WITH NO
SIGNIFICANT WEATHER AND/OR OBSTRUCTIONS TO VISIBILITY.

OHZ001>008-015>018-024>027-034-035-043-044-291100-
   NORTHWEST OHIO

CITY           SKY/WX    TMP DP  RH WIND       PRES   REMARKS
DEFIANCE       CLOUDY    63  58  83 CALM      30.11F
FINDLAY        CLOUDY    62  57  83 SE6       30.12S
TOLEDO EXPRESS CLOUDY    60  58  92 CALM      30.12S
TOLEDO EXEC    CLOUDY    61  56  83 CALM      30.13S
LIMA           CLOUDY    60  57  89 SE3       30.12S
$$

OHZ009>014-019>023-028>033-038-089-291100-
   NORTHEAST OHIO

CITY           SKY/WX    TMP DP  RH WIND       PRES   REMARKS
CLE-HOPKINS    MOCLDY    59  55  87 CALM      30.15S
CLE-LAKEFRONT  MOCLDY    63  56  78 SE12      30.12S
CUY CO. ARPT   NOT AVBL
LORAIN-ELYRIA  MOCLDY    58  56  93 CALM      30.14S FOG
ASHTABULA      PTCLDY    53  53 100 CALM      30.16S
AKRON-CANTON   MOCLDY    60  54  80 CALM      30.16R
WOOSTER        NOT AVBL
MANSFIELD      MOCLDY    58  57  97 S5        30.16R
YOUNGSTOWN     PTCLDY    53  51  93 E3        30.15S
$$

OHZ042-051>053-060>062-070>072-077>081-291100-
  SOUTHWEST OHIO

CITY           SKY/WX    TMP DP  RH WIND       PRES   REMARKS
CINC-COVINGTON CLOUDY    67  60  78 S3        30.12S
CINC-LUNKEN    MOCLDY    60  60 100 CALM      30.13R
HAMILTON       MOCLDY    62  60  93 CALM      30.13R
DAYTON         NOT AVBL
WRIGHT-PAT AFB NOT AVBL
DAYTON GENERAL MOCLDY    64  57  78 S5        30.12S
WILMINGTON     MOCLDY    62  57  83 SE3       30.14R
$$

OHZ036-037-039>041-045>050-054>059-063>069-073>076-082>088-291100-
  CENTRAL AND SOUTHEAST OHIO

CITY           SKY/WX    TMP DP  RH WIND       PRES   REMARKS
COLUMBUS       PTCLDY    60  57  89 CALM      30.14R
OSU AIRPORT    MOCLDY    61  57  87 CALM      30.14S
BOLTON FIELD   NOT AVBL
RICKENBACK AFB NOT AVBL
NEWARK         PTCLDY    54  53  97 CALM      30.15S FOG
MARION         CLOUDY    60  56  86 CALM      30.15R
LANCASTER      PTCLDY    54  52  93 CALM      30.15S FOG
ZANESVILLE     CLEAR     54  51  90 CALM      30.15S
NEW PHILLY     FOG       51  50  96 CALM      30.17R VSB 3/4
$$


USA.gov is the U.S. government's official web portal to all federal, state and local government web resources and services.